| time (UTC) | temp C | wind direction | speed KPH | gust KPH | rain 1hr cm | rain 24hr cm | rain mn cm | humidity % | barometer mb |
| 20260505211437 | 11 | 90 | 17.7 | 20.9 | 0.00 | 0.00 | 0.00 | 76 | 1009.6 |
| 20260505205538 | 11 | 90 | 14.5 | 19.3 | 0.00 | 0.00 | 0.00 | 77 | 1010.0 |
| 20260505204537 | 11 | 90 | 20.9 | 25.7 | 0.00 | 0.00 | 0.00 | 76 | 1009.8 |
| 20260505202538 | 11 | 90 | 25.7 | 32.2 | 0.00 | 0.00 | 0.00 | 77 | 1009.9 |
| 20260505201538 | 11 | 96 | 24.1 | 25.7 | 0.00 | 0.00 | 0.00 | 77 | 1010.3 |
| 20260505200636 | 11 | 90 | 24.1 | 27.4 | 0.00 | 0.00 | 0.00 | 78 | 1009.9 |
| 20260505195637 | 11 | 99 | 27.4 | 32.2 | 0.00 | 0.00 | 0.00 | 78 | 1010.4 |
| 20260505194640 | 10 | 110 | 24.1 | 32.2 | 0.00 | 0.00 | 0.00 | 78 | 1010.4 |
| 20260505193736 | 10 | 90 | 24.1 | 27.4 | 0.00 | 0.00 | 0.00 | 79 | 1010.8 |
| 20260505192835 | 10 | 115 | 24.1 | 30.6 | 0.00 | 0.00 | 0.00 | 79 | 1011.1 |
| 20260505191836 | 10 | 110 | 25.7 | 32.2 | 0.00 | 0.00 | 0.00 | 79 | 1010.7 |
| 20260505190838 | 11 | 91 | 25.7 | 32.2 | 0.00 | 0.00 | 0.00 | 78 | 1010.4 |
| 20260505185836 | 11 | 91 | 22.5 | 32.2 | 0.00 | 0.00 | 0.00 | 78 | 1010.4 |
| 20260505184837 | 11 | 90 | 33.8 | 38.6 | 0.00 | 0.00 | 0.00 | 77 | 1010.5 |
| 20260505183838 | 11 | 95 | 29.0 | 38.6 | 0.00 | 0.00 | 0.00 | 77 | 1010.4 |
| 20260505183737 | 11 | 90 | 33.8 | 40.2 | 0.00 | 0.00 | 0.00 | 78 | 1010.4 |
| 20260505182736 | 11 | 91 | 30.6 | 40.2 | 0.00 | 0.00 | 0.00 | 77 | 1010.7 |
| 20260505181740 | 11 | 90 | 27.4 | 35.4 | 0.00 | 0.00 | 0.00 | 78 | 1010.9 |
| 20260505180736 | 11 | 91 | 20.9 | 27.4 | 0.00 | 0.00 | 0.00 | 79 | 1011.2 |
| 20260505175736 | 11 | 90 | 24.1 | 27.4 | 0.00 | 0.00 | 0.00 | 78 | 1011.2 |
| 20260505174737 | 10 | 90 | 24.1 | 30.6 | 0.00 | 0.00 | 0.00 | 78 | 1011.2 |
| 20260505173738 | 10 | 93 | 24.1 | 29.0 | 0.00 | 0.00 | 0.00 | 79 | 1011.5 |
| 20260505172738 | 10 | 96 | 25.7 | 29.0 | 0.00 | 0.00 | 0.00 | 79 | 1011.7 |
| 20260505171836 | 10 | 91 | 25.7 | 30.6 | 0.00 | 0.00 | 0.00 | 79 | 1011.6 |
| 20260505170839 | 10 | 95 | 27.4 | 30.6 | 0.00 | 0.00 | 0.00 | 79 | 1011.8 |
| 20260505165936 | 10 | 90 | 27.4 | 30.6 | 0.00 | 0.00 | 0.00 | 80 | 1011.8 |
| 20260505164938 | 10 | 90 | 24.1 | 30.6 | 0.00 | 0.00 | 0.00 | 81 | 1012.1 |
| 20260505163938 | 10 | 90 | 25.7 | 30.6 | 0.00 | 0.00 | 0.00 | 81 | 1012.5 |
| 20260505163036 | 10 | 91 | 29.0 | 37.0 | 0.00 | 0.00 | 0.00 | 80 | 1012.7 |
| 20260505162037 | 10 | 93 | 30.6 | 37.0 | 0.00 | 0.00 | 0.00 | 79 | 1012.5 |
| 20260505161136 | 10 | 90 | 33.8 | 41.8 | 0.00 | 0.00 | 0.00 | 78 | 1012.2 |
| 20260505160136 | 10 | 92 | 29.0 | 35.4 | 0.00 | 0.00 | 0.00 | 79 | 1012.2 |
| 20260505152238 | 10 | 90 | 22.5 | 25.7 | 0.00 | 0.00 | 0.00 | 78 | 1013.0 |
| 20260505150337 | 11 | 90 | 29.0 | 33.8 | 0.00 | 0.00 | 0.00 | 77 | 1012.8 |
| 20260505140537 | 10 | 90 | 24.1 | 29.0 | 0.00 | 0.00 | 0.00 | 76 | 1012.9 |
| 20260505123739 | 10 | 90 | 16.1 | 17.7 | 0.00 | 0.00 | 0.00 | 77 | 1012.9 |
| 20260505122737 | 10 | 90 | 14.5 | 16.1 | 0.00 | 0.00 | 0.00 | 77 | 1013.1 |
| 20260505121738 | 10 | 90 | 12.9 | 16.1 | 0.00 | 0.00 | 0.00 | 78 | 1013.1 |
| 20260505120736 | 10 | 90 | 17.7 | 22.5 | 0.00 | 0.00 | 0.00 | 76 | 1013.0 |
| 20260505114738 | 9 | 90 | 17.7 | 20.9 | 0.00 | 0.00 | 0.00 | 76 | 1012.8 |
| 20260505113738 | 9 | 90 | 19.3 | 22.5 | 0.00 | 0.00 | 0.00 | 77 | 1012.8 |
| 20260505112739 | 9 | 90 | 19.3 | 22.5 | 0.00 | 0.00 | 0.00 | 78 | 1012.5 |
| 20260505110836 | 9 | 90 | 22.5 | 24.1 | 0.00 | 0.00 | 0.00 | 78 | 1012.6 |
| 20260505102036 | 8 | 112 | 16.1 | 17.7 | 0.00 | 0.00 | 0.00 | 81 | 1012.5 |
| 20260505101039 | 8 | 112 | 19.3 | 20.9 | 0.00 | 0.00 | 0.00 | 81 | 1012.5 |
| 20260505100049 | 8 | 113 | 19.3 | 22.5 | 0.00 | 0.00 | 0.00 | 80 | 1012.3 |
| 20260505095037 | 8 | 112 | 22.5 | 25.7 | 0.00 | 0.00 | 0.00 | 79 | 1012.3 |
| 20260505093037 | 8 | 90 | 20.9 | 22.5 | 0.00 | 0.00 | 0.00 | 78 | 1012.1 |
| 20260505091037 | 8 | 90 | 20.9 | 22.5 | 0.00 | 0.00 | 0.00 | 79 | 1012.0 |
| 20260505085037 | 8 | 90 | 17.7 | 20.9 | 0.00 | 0.00 | 0.00 | 80 | 1012.1 |
| 20260505084039 | 8 | 90 | 14.5 | 17.7 | 0.00 | 0.00 | 0.00 | 77 | 1012.2 |
| 20260505083037 | 9 | 90 | 12.9 | 14.5 | 0.00 | 0.00 | 0.00 | 76 | 1012.1 |
| 20260505081037 | 9 | 90 | 11.3 | 12.9 | 0.00 | 0.00 | 0.00 | 76 | 1012.1 |
| 20260505075136 | 9 | 90 | 14.5 | 17.7 | 0.00 | 0.00 | 0.00 | 76 | 1012.0 |
| 20260505074139 | 9 | 90 | 12.9 | 17.7 | 0.00 | 0.00 | 0.00 | 75 | 1012.0 |
| 20260505073235 | 9 | 90 | 14.5 | 14.5 | 0.00 | 0.00 | 0.00 | 76 | 1012.1 |
| 20260505072335 | 9 | 90 | 14.5 | 16.1 | 0.00 | 0.00 | 0.00 | 75 | 1012.1 |
| 20260505071337 | 9 | 90 | 12.9 | 16.1 | 0.00 | 0.00 | 0.00 | 75 | 1012.1 |
| 20260505070436 | 9 | 90 | 12.9 | 16.1 | 0.00 | 0.00 | 0.00 | 76 | 1012.0 |
| 20260505065437 | 9 | 90 | 11.3 | 12.9 | 0.00 | 0.00 | 0.00 | 75 | 1012.0 |
| 20260505064438 | 9 | 90 | 12.9 | 14.5 | 0.00 | 0.00 | 0.00 | 76 | 1012.0 |
| 20260505063537 | 9 | 90 | 12.9 | 16.1 | 0.00 | 0.00 | 0.00 | 75 | 1012.0 |
| 20260505062539 | 9 | 90 | 16.1 | 17.7 | 0.00 | 0.00 | 0.00 | 76 | 1011.9 |
| 20260505060638 | 9 | 90 | 14.5 | 16.1 | 0.00 | 0.00 | 0.00 | 76 | 1011.8 |
| 20260505055735 | 9 | 90 | 14.5 | 16.1 | 0.00 | 0.00 | 0.00 | 76 | 1011.8 |
| 20260505054737 | 9 | 90 | 14.5 | 16.1 | 0.00 | 0.00 | 0.00 | 75 | 1011.8 |
| 20260505053738 | 9 | 90 | 12.9 | 14.5 | 0.00 | 0.00 | 0.00 | 75 | 1011.8 |
| 20260505052836 | 9 | 90 | 12.9 | 14.5 | 0.00 | 0.00 | 0.00 | 74 | 1011.6 |
| 20260505051839 | 9 | 90 | 9.7 | 12.9 | 0.00 | 0.00 | 0.00 | 75 | 1011.5 |
| 20260505050936 | 9 | 90 | 9.7 | 12.9 | 0.00 | 0.00 | 0.00 | 75 | 1011.5 |
| 20260505041135 | 9 | 90 | 14.5 | 16.1 | 0.00 | 0.00 | 0.00 | 75 | 1011.5 |
| 20260505040138 | 9 | 270 | 14.5 | 17.7 | 0.00 | 0.00 | 0.00 | 75 | 1011.4 |
| 20260505034229 | 9 | 90 | 16.1 | 19.3 | 0.00 | 0.00 | 0.00 | 74 | 1011.4 |
| 20260505033229 | 10 | 90 | 14.5 | 17.7 | 0.00 | 0.00 | 0.00 | 73 | 1011.3 |
| 20260505032229 | 10 | 90 | 14.5 | 17.7 | 0.00 | 0.00 | 0.00 | 73 | 1011.3 |
| 20260505025328 | 8 | 90 | 8.0 | 11.3 | 0.00 | 0.00 | 0.00 | 77 | 1011.4 |
| 20260505024328 | 8 | 360 | 3.2 | 4.8 | 0.00 | 0.00 | 0.00 | 75 | 1011.7 |
| 20260505023329 | 8 | 90 | 6.4 | 8.0 | 0.00 | 0.00 | 0.00 | 76 | 1011.4 |
| 20260505022329 | 8 | 89 | 9.7 | 11.3 | 0.00 | 0.00 | 0.00 | 80 | 1011.3 |
| 20260505021330 | 8 | 360 | 6.4 | 8.0 | 0.00 | 0.00 | 0.00 | 80 | 1011.3 |
| 20260505020428 | 8 | 360 | 8.0 | 8.0 | 0.00 | 0.00 | 0.00 | 78 | 1011.4 |
| 20260505015528 | 8 | 360 | 9.7 | 11.3 | 0.00 | 0.00 | 0.00 | 77 | 1011.4 |
| 20260505014528 | 8 | 360 | 4.8 | 8.0 | 0.00 | 0.00 | 0.00 | 75 | 1011.3 |
| 20260505013628 | 8 | 1 | 6.4 | 8.0 | 0.00 | 0.00 | 0.00 | 74 | 1011.1 |
| 20260505012629 | 8 | 45 | 6.4 | 8.0 | 0.00 | 0.00 | 0.00 | 74 | 1011.1 |
| 20260505010727 | 8 | 90 | 0.0 | 0.0 | 0.00 | 0.00 | 0.00 | 74 | 1011.0 |
| 20260505005728 | 8 | 82 | 8.0 | 9.7 | 0.00 | 0.00 | 0.00 | 75 | 1010.8 |
| 20260505004827 | 8 | 45 | 9.7 | 11.3 | 0.00 | 0.00 | 0.00 | 74 | 1010.8 |
| 20260505003830 | 8 | 67 | 12.9 | 14.5 | 0.00 | 0.00 | 0.00 | 75 | 1010.7 |
| 20260505002829 | 9 | 90 | 14.5 | 17.7 | 0.00 | 0.00 | 0.00 | 75 | 1010.6 |
| 20260505001927 | 9 | 90 | 14.5 | 16.1 | 0.00 | 0.00 | 0.00 | 74 | 1010.4 |
| 20260505000930 | 9 | 90 | 16.1 | 17.7 | 0.00 | 0.00 | 0.00 | 72 | 1010.3 |
| 20260504235928 | 10 | 112 | 9.7 | 11.3 | 0.00 | 0.00 | 0.00 | 71 | 1010.1 |
| 20260504234027 | 10 | 45 | 6.4 | 8.0 | 0.00 | 0.00 | 0.00 | 71 | 1009.7 |
| 20260504233027 | 10 | 45 | 11.3 | 12.9 | 0.00 | 0.00 | 0.00 | 72 | 1009.4 |
| 20260504232027 | 10 | 360 | 11.3 | 11.3 | 0.00 | 0.00 | 0.00 | 71 | 1009.5 |
| 20260504231028 | 10 | 360 | 6.4 | 8.0 | 0.00 | 0.00 | 0.00 | 72 | 1009.4 |
| 20260504225028 | 11 | 45 | 12.9 | 14.5 | 0.00 | 0.00 | 0.00 | 71 | 1009.1 |
| 20260504224030 | 11 | 45 | 6.4 | 8.0 | 0.00 | 0.00 | 0.00 | 71 | 1009.0 |
| 20260504223029 | 11 | 22 | 3.2 | 4.8 | 0.00 | 0.00 | 0.00 | 71 | 1009.0 |
| 20260504221228 | 11 | 112 | 9.7 | 11.3 | 0.00 | 0.00 | 0.00 | 66 | 1009.0 |
| 20260504220328 | 11 | 112 | 12.9 | 12.9 | 0.00 | 0.00 | 0.00 | 64 | 1009.0 |
| 20260504215329 | 12 | 90 | 8.0 | 9.7 | 0.00 | 0.00 | 0.00 | 62 | 1008.8 |
| 20260504214427 | 12 | 90 | 12.9 | 14.5 | 0.00 | 0.00 | 0.00 | 60 | 1008.8 |
| 20260504214329 | 12 | 90 | 12.9 | 14.5 | 0.00 | 0.00 | 0.00 | 60 | 1008.8 |
| 20260504213427 | 12 | 90 | 14.5 | 16.1 | 0.00 | 0.00 | 0.00 | 61 | 1008.7 |